N6306Q KSNA-KHND

Flight info

Callsign N6306Q
Flight time 0h 50m
Altitude 21000
Route ANAHM1 HEC DANBY
Aircraft TBM9/L-G/L

Departure

Time 2026-04-26 01:11
Airport John Wayne Orange County International Airport (KSNA)

Arrival

Time 2026-04-26 02:01
Airport Henderson Executive Airport (KHND)
Time Latitude Longitude Altitude Speed Heading
2026-04-26 00:57 33.67651 -117.87057 51 ft 0 kts 106°
2026-04-26 01:04 33.67648 -117.87045 53 ft 11 kts 108°
2026-04-26 01:04 33.67735 -117.86929 51 ft 28 kts 26°
2026-04-26 01:04 33.67865 -117.86847 50 ft 17 kts 28°
2026-04-26 01:05 33.67986 -117.86788 46 ft 18 kts 20°
2026-04-26 01:05 33.68123 -117.86701 43 ft 26 kts 26°
2026-04-26 01:05 33.68189 -117.86611 42 ft 0 kts 88°
2026-04-26 01:10 33.68188 -117.86591 41 ft 13 kts 106°
2026-04-26 01:10 33.68096 -117.86546 43 ft 27 kts 211°
2026-04-26 01:10 33.67734 -117.86785 72 ft 91 kts 208°
2026-04-26 01:11 33.67040 -117.87212 340 ft 128 kts 206°
2026-04-26 01:11 33.66244 -117.87835 801 ft 145 kts 232°
2026-04-26 01:11 33.65628 -117.88832 1324 ft 152 kts 233°
2026-04-26 01:11 33.64966 -117.89881 1843 ft 161 kts 233°
2026-04-26 01:12 33.64241 -117.90995 2002 ft 178 kts 234°
2026-04-26 01:12 33.63444 -117.92207 2009 ft 190 kts 234°
2026-04-26 01:12 33.62611 -117.93475 2004 ft 196 kts 232°
2026-04-26 01:12 33.61759 -117.94781 2008 ft 201 kts 234°
2026-04-26 01:13 33.60916 -117.96049 2403 ft 189 kts 234°
2026-04-26 01:13 33.60094 -117.97288 2904 ft 188 kts 233°
2026-04-26 01:13 33.59284 -117.98510 3407 ft 187 kts 233°
2026-04-26 01:13 33.58476 -117.99731 3910 ft 186 kts 233°
2026-04-26 01:14 33.57664 -118.00948 4420 ft 187 kts 233°
2026-04-26 01:14 33.56850 -118.02165 4927 ft 188 kts 233°
2026-04-26 01:14 33.55989 -118.03459 4989 ft 208 kts 233°
2026-04-26 01:14 33.55065 -118.04842 5002 ft 221 kts 233°
2026-04-26 01:15 33.54089 -118.06305 5006 ft 227 kts 233°
2026-04-26 01:15 33.53108 -118.07768 4997 ft 224 kts 232°
2026-04-26 01:15 33.52140 -118.09225 4999 ft 223 kts 233°
2026-04-26 01:15 33.51170 -118.10679 4999 ft 223 kts 233°
2026-04-26 01:16 33.50201 -118.12129 5003 ft 222 kts 233°
2026-04-26 01:16 33.49230 -118.13570 5004 ft 222 kts 233°
2026-04-26 01:16 33.48258 -118.15014 5004 ft 223 kts 233°
2026-04-26 01:16 33.47427 -118.16554 4999 ft 220 kts 252°
2026-04-26 01:17 33.47399 -118.18349 4994 ft 220 kts 285°
2026-04-26 01:17 33.48261 -118.19837 5098 ft 219 kts 321°
2026-04-26 01:17 33.49662 -118.20357 5600 ft 212 kts 358°
2026-04-26 01:17 33.51015 -118.19800 6103 ft 210 kts 28°
2026-04-26 01:18 33.52236 -118.18815 6601 ft 213 kts 31°
2026-04-26 01:18 33.53463 -118.17808 7088 ft 215 kts 31°
2026-04-26 01:18 33.54632 -118.16840 8001 ft 191 kts 31°
2026-04-26 01:18 33.55667 -118.15974 8941 ft 176 kts 32°
2026-04-26 01:19 33.56689 -118.15122 9550 ft 181 kts 32°
2026-04-26 01:19 33.57748 -118.14275 10129 ft 184 kts 25°
2026-04-26 01:19 33.58892 -118.13583 10695 ft 185 kts 21°
2026-04-26 01:19 33.60057 -118.12889 11250 ft 189 kts 21°
2026-04-26 01:20 33.61237 -118.12172 11815 ft 191 kts 21°
2026-04-26 01:20 33.62432 -118.11434 12403 ft 194 kts 21°
2026-04-26 01:20 33.63639 -118.10673 13003 ft 197 kts 21°
2026-04-26 01:20 33.64861 -118.09888 13614 ft 201 kts 21°
2026-04-26 01:21 33.66098 -118.09082 14173 ft 204 kts 21°
2026-04-26 01:21 33.67355 -118.08259 14709 ft 207 kts 21°
2026-04-26 01:21 33.68655 -118.07423 14956 ft 229 kts 21°
2026-04-26 01:21 33.70164 -118.06489 14970 ft 258 kts 21°
2026-04-26 01:22 33.71840 -118.05476 14976 ft 279 kts 21°
2026-04-26 01:22 33.73624 -118.04414 14967 ft 293 kts 21°
2026-04-26 01:22 33.75484 -118.03314 14970 ft 301 kts 21°
2026-04-26 01:22 33.77383 -118.02191 14969 ft 306 kts 21°
2026-04-26 01:23 33.79306 -118.01062 14969 ft 309 kts 21°
2026-04-26 01:23 33.81245 -117.99924 14968 ft 312 kts 21°
2026-04-26 01:23 33.83205 -117.98774 14987 ft 315 kts 21°
2026-04-26 01:23 33.85146 -117.97634 14981 ft 295 kts 21°
2026-04-26 01:24 33.86891 -117.96578 14969 ft 269 kts 21°
2026-04-26 01:24 33.88517 -117.95578 14970 ft 257 kts 21°
2026-04-26 01:24 33.90078 -117.94592 14965 ft 252 kts 27°
2026-04-26 01:24 33.91372 -117.93168 15125 ft 253 kts 47°
2026-04-26 01:25 33.92489 -117.91547 15861 ft 250 kts 47°
2026-04-26 01:25 33.93636 -117.90004 16607 ft 245 kts 45°
2026-04-26 01:25 33.94798 -117.88521 17375 ft 242 kts 45°
2026-04-26 01:25 33.95924 -117.87062 18265 ft 231 kts 46°
2026-04-26 01:26 33.97008 -117.85639 18878 ft 233 kts 46°
2026-04-26 01:26 33.98121 -117.84187 19389 ft 237 kts 46°
2026-04-26 01:26 33.99249 -117.82713 19907 ft 241 kts 46°
2026-04-26 01:26 34.00399 -117.81209 20432 ft 246 kts 46°
2026-04-26 01:27 34.01566 -117.79680 20948 ft 252 kts 46°
2026-04-26 01:27 34.02823 -117.78037 21001 ft 281 kts 46°
2026-04-26 01:27 34.04193 -117.76248 21009 ft 305 kts 46°
2026-04-26 01:27 34.05681 -117.74303 21007 ft 324 kts 46°
2026-04-26 01:28 34.07240 -117.72259 21000 ft 337 kts 46°
2026-04-26 01:28 34.08851 -117.70142 21000 ft 346 kts 46°
2026-04-26 01:28 34.10495 -117.67979 20996 ft 352 kts 46°
2026-04-26 01:28 34.12163 -117.65786 20998 ft 356 kts 46°
2026-04-26 01:29 34.13844 -117.63576 20995 ft 358 kts 47°
2026-04-26 01:29 34.15535 -117.61350 20999 ft 360 kts 47°
2026-04-26 01:29 34.17230 -117.59118 20993 ft 361 kts 47°
2026-04-26 01:29 34.18912 -117.56902 20989 ft 362 kts 47°
2026-04-26 01:30 34.20617 -117.54655 20984 ft 362 kts 47°
2026-04-26 01:30 34.22319 -117.52410 20970 ft 362 kts 47°
2026-04-26 01:30 34.24023 -117.50158 20966 ft 363 kts 47°
2026-04-26 01:30 34.25725 -117.47907 20959 ft 363 kts 47°
2026-04-26 01:31 34.27425 -117.45661 20952 ft 362 kts 47°
2026-04-26 01:31 34.28553 -117.44171 20947 ft 362 kts 47°
2026-04-26 01:31 34.30254 -117.41924 20938 ft 362 kts 47°
2026-04-26 01:31 34.31946 -117.39680 20933 ft 361 kts 47°
2026-04-26 01:32 34.33637 -117.37439 20912 ft 361 kts 47°
2026-04-26 01:32 34.35331 -117.35197 20912 ft 360 kts 47°
2026-04-26 01:32 34.37021 -117.32955 20909 ft 360 kts 47°
2026-04-26 01:32 34.38709 -117.30713 20907 ft 360 kts 47°
2026-04-26 01:33 34.40397 -117.28471 20906 ft 360 kts 47°
2026-04-26 01:33 34.42085 -117.26228 20904 ft 360 kts 47°
2026-04-26 01:33 34.43768 -117.23990 20905 ft 359 kts 47°
2026-04-26 01:33 34.45450 -117.21751 20900 ft 359 kts 48°
2026-04-26 01:34 34.47135 -117.19507 20894 ft 359 kts 48°
2026-04-26 01:34 34.48815 -117.17268 20895 ft 360 kts 48°
2026-04-26 01:34 34.50502 -117.15020 20893 ft 360 kts 48°
2026-04-26 01:34 34.52185 -117.12774 20886 ft 360 kts 48°
2026-04-26 01:35 34.53848 -117.10554 20882 ft 360 kts 48°
2026-04-26 01:35 34.55534 -117.08301 20875 ft 360 kts 48°
2026-04-26 01:35 34.57218 -117.06049 20865 ft 360 kts 48°
2026-04-26 01:35 34.58906 -117.03791 20857 ft 361 kts 48°
2026-04-26 01:36 34.60592 -117.01537 20848 ft 361 kts 48°
2026-04-26 01:36 34.62276 -116.99279 20825 ft 360 kts 49°
2026-04-26 01:36 34.63959 -116.97024 20823 ft 361 kts 49°
2026-04-26 01:37 34.67330 -116.92500 20830 ft 361 kts 49°
2026-04-26 01:37 34.69013 -116.90242 20829 ft 360 kts 49°
2026-04-26 01:37 34.70672 -116.88012 20830 ft 360 kts 49°
2026-04-26 01:37 34.72352 -116.85752 20831 ft 360 kts 49°
2026-04-26 01:38 34.74032 -116.83492 20832 ft 360 kts 49°
2026-04-26 01:38 34.75709 -116.81234 20838 ft 360 kts 49°
2026-04-26 01:38 34.77388 -116.78972 20839 ft 360 kts 49°
2026-04-26 01:38 34.79066 -116.76710 20841 ft 359 kts 49°
2026-04-26 01:39 34.80741 -116.74451 20843 ft 359 kts 49°
2026-04-26 01:39 34.82412 -116.72194 20838 ft 359 kts 49°
2026-04-26 01:39 34.84081 -116.69939 20840 ft 358 kts 49°
2026-04-26 01:39 34.85749 -116.67685 20840 ft 358 kts 49°
2026-04-26 01:40 34.87397 -116.65456 20835 ft 358 kts 49°
2026-04-26 01:40 34.89067 -116.63196 20832 ft 358 kts 49°
2026-04-26 01:40 34.90733 -116.60940 20828 ft 358 kts 49°
2026-04-26 01:40 34.92397 -116.58684 20818 ft 358 kts 49°
2026-04-26 01:41 34.94063 -116.56425 20813 ft 358 kts 49°
2026-04-26 01:41 34.95731 -116.54161 20805 ft 358 kts 49°
2026-04-26 01:41 34.97397 -116.51900 20801 ft 358 kts 49°
2026-04-26 01:41 34.99063 -116.49638 20792 ft 358 kts 49°
2026-04-26 01:42 35.00725 -116.47377 20783 ft 358 kts 49°
2026-04-26 01:42 35.02388 -116.45112 20783 ft 358 kts 49°
2026-04-26 01:42 35.04034 -116.42872 20780 ft 358 kts 49°
2026-04-26 01:42 35.05696 -116.40608 20785 ft 358 kts 49°
2026-04-26 01:43 35.07360 -116.38339 20781 ft 358 kts 49°
2026-04-26 01:43 35.09020 -116.36074 20786 ft 358 kts 49°
2026-04-26 01:43 35.10681 -116.33807 20782 ft 358 kts 49°
2026-04-26 01:43 35.12340 -116.31541 20779 ft 358 kts 49°
2026-04-26 01:44 35.13998 -116.29274 20778 ft 358 kts 49°
2026-04-26 01:44 35.15658 -116.27004 20779 ft 358 kts 49°
2026-04-26 01:44 35.17321 -116.24727 20772 ft 358 kts 49°
2026-04-26 01:44 35.18980 -116.22454 20769 ft 357 kts 49°
2026-04-26 01:45 35.20633 -116.20189 20774 ft 357 kts 49°
2026-04-26 01:45 35.22286 -116.17924 20777 ft 357 kts 49°
2026-04-26 01:45 35.23938 -116.15656 20776 ft 357 kts 49°
2026-04-26 01:45 35.25592 -116.13385 20777 ft 357 kts 49°
2026-04-26 01:46 35.27245 -116.11114 20779 ft 357 kts 49°
2026-04-26 01:46 35.28873 -116.08872 20763 ft 356 kts 49°
2026-04-26 01:46 35.30525 -116.06601 20766 ft 357 kts 49°
2026-04-26 01:46 35.32175 -116.04329 20771 ft 357 kts 49°
2026-04-26 01:47 35.33827 -116.02052 20769 ft 357 kts 49°
2026-04-26 01:47 35.35481 -115.99773 20772 ft 358 kts 49°
2026-04-26 01:47 35.37132 -115.97495 20774 ft 357 kts 50°
2026-04-26 01:47 35.38783 -115.95215 20778 ft 357 kts 49°
2026-04-26 01:48 35.40432 -115.92935 20776 ft 357 kts 49°
2026-04-26 01:48 35.42081 -115.90657 20781 ft 357 kts 49°
2026-04-26 01:48 35.43728 -115.88378 20785 ft 357 kts 49°
2026-04-26 01:48 35.45354 -115.86126 20783 ft 357 kts 49°
2026-04-26 01:49 35.47000 -115.83847 20788 ft 357 kts 49°
2026-04-26 01:49 35.48646 -115.81565 20788 ft 356 kts 49°
2026-04-26 01:49 35.50288 -115.79288 20787 ft 356 kts 49°
2026-04-26 01:49 35.51926 -115.77014 20789 ft 355 kts 49°
2026-04-26 01:50 35.53563 -115.74741 20788 ft 355 kts 49°
2026-04-26 01:50 35.55195 -115.72471 20787 ft 354 kts 49°
2026-04-26 01:50 35.56829 -115.70199 20788 ft 354 kts 49°
2026-04-26 01:50 35.58460 -115.67929 20787 ft 354 kts 49°
2026-04-26 01:51 35.60092 -115.65657 20787 ft 352 kts 49°
2026-04-26 01:51 35.61614 -115.63532 20779 ft 314 kts 50°
2026-04-26 01:51 35.63001 -115.61590 20778 ft 292 kts 50°
2026-04-26 01:51 35.64296 -115.59786 20780 ft 279 kts 50°
2026-04-26 01:52 35.65544 -115.58048 20778 ft 256 kts 50°
2026-04-26 01:52 35.66666 -115.56482 20774 ft 234 kts 50°
2026-04-26 01:52 35.67706 -115.55030 20767 ft 220 kts 50°
2026-04-26 01:52 35.68771 -115.53537 19947 ft 247 kts 50°
2026-04-26 01:53 35.69948 -115.51890 19072 ft 264 kts 50°
2026-04-26 01:53 35.71193 -115.50154 18223 ft 276 kts 50°
2026-04-26 01:53 35.72481 -115.48360 17263 ft 283 kts 50°
2026-04-26 01:53 35.73795 -115.46531 16321 ft 287 kts 50°
2026-04-26 01:54 35.75121 -115.44672 15343 ft 291 kts 50°
2026-04-26 01:54 35.76459 -115.42791 14397 ft 293 kts 50°
2026-04-26 01:54 35.77802 -115.40907 13458 ft 293 kts 50°
2026-04-26 01:54 35.79133 -115.39044 12438 ft 292 kts 51°
2026-04-26 01:55 35.80468 -115.37169 11439 ft 289 kts 51°
2026-04-26 01:55 35.81787 -115.35314 10468 ft 285 kts 52°
2026-04-26 01:55 35.83082 -115.33496 9512 ft 280 kts 52°
2026-04-26 01:55 35.84351 -115.31712 8494 ft 275 kts 51°
2026-04-26 01:56 35.85587 -115.29962 8030 ft 260 kts 51°
2026-04-26 01:56 35.86723 -115.28356 8024 ft 240 kts 51°
2026-04-26 01:56 35.87798 -115.26833 8019 ft 231 kts 51°
2026-04-26 01:56 35.88851 -115.25352 8021 ft 228 kts 51°
2026-04-26 01:57 35.89894 -115.23882 8015 ft 228 kts 52°
2026-04-26 01:57 35.90943 -115.22403 8021 ft 230 kts 51°
2026-04-26 01:57 35.92125 -115.21124 8006 ft 232 kts 30°
2026-04-26 01:57 35.93577 -115.20262 7513 ft 224 kts 23°
2026-04-26 01:58 35.94987 -115.19481 7002 ft 220 kts 23°
2026-04-26 01:58 35.96389 -115.18691 6479 ft 221 kts 22°
2026-04-26 01:58 35.97769 -115.17887 5979 ft 217 kts 23°
2026-04-26 01:58 35.99116 -115.17092 5450 ft 211 kts 22°
2026-04-26 01:59 36.00398 -115.16322 4899 ft 201 kts 23°
2026-04-26 01:59 36.01657 -115.15529 4158 ft 205 kts 30°
2026-04-26 01:59 36.02551 -115.14190 3547 ft 199 kts 73°
2026-04-26 01:59 36.02533 -115.12709 3513 ft 152 kts 123°
2026-04-26 02:00 36.01848 -115.11955 3218 ft 123 kts 179°
2026-04-26 02:00 36.01099 -115.12283 3066 ft 118 kts 212°
2026-04-26 02:00 36.00381 -115.12739 2828 ft 112 kts 213°
2026-04-26 02:00 35.99757 -115.13112 2745 ft 89 kts 194°
2026-04-26 02:01 35.99158 -115.13173 2642 ft 85 kts 188°
2026-04-26 02:01 35.98579 -115.13272 2527 ft 83 kts 188°
2026-04-26 02:01 35.98009 -115.13297 2422 ft 73 kts 181°
2026-04-26 02:01 35.97615 -115.13305 2437 ft 43 kts 181°
2026-04-26 02:02 35.97442 -115.13341 2448 ft 10 kts 256°
2026-04-26 02:02 35.97440 -115.13355 2444 ft 0 kts 271°